User: anonymous   Login
Location: Unspecified
(0.0000°N, 0.0000°E)
Time: 03:25:03
(UTC+00:00)
Language:

LEMUR 2 AHMED-ASRAR - Orbit

View from above orbital plane
View from above orbital plane
View from above satellite
View from above satellite

Ground track
Ground track

The orbit is defined by the following mean orbital elements,

1 60576U          26145.20476757 +.00000000 +00000-0 +67343-3 0 00009
2 60576  97.6994 230.0000 0003440  93.1624 267.0000 15.12094459    06
Epoch (UTC): 25 May 2026 04:54:51
Eccentricity: 0.0003440
inclination: 97.6994°
perigee height: 527 km
apogee height: 532 km
right ascension of ascending node: 230.0000°
argument of perigee: 93.1624°
revolutions per day: 15.12094459
mean anomaly at epoch: 267.0000°

The dashed part of the orbit path shows where the satellite is in the earth's shadow,  

DLR